Weather History for Franklin, VA

Change the Weather History Date:

Wednesday, November 21, 2012

  Actual Average (KSFQ) Record (KSFQ)
Temperature  
Mean Temperature 49 °F -  
Max Temperature 59 °F 59 °F 77 °F (1953)
Min Temperature 39 °F 37 °F 18 °F (1951)
Degree Days  
Heating Degree Days 16    
Moisture  
Dew Point 42 °F    
Average Humidity 84    
Maximum Humidity 100    
Minimum Humidity 55    
Precipitation  
Precipitation 0.00 in - - ()
Sea Level Pressure  
Sea Level Pressure 30.14 in    
Wind  
Wind Speed 3 mph (NNE)    
Max Wind Speed 13 mph    
Max Gust Speed 16 mph    
Visibility 9 miles    
Events      
Averages and records for this station are not official NWS values.
T = Trace of Precipitation, MM = Missing Value Source: NWS Daily Summary

Daily Weather History Graph

Daily Weather History Graph

Search for Another Location

Airport:

Trip Planner

Search our weather history database for the weather conditions in past years. The results will help you decide how hot, cold, wet, or windy it might be!

Date:

Astronomy

Nov. 21, 2012 Rise Set
Actual Time 6:52 AM EST 4:54 PM EST
Civil Twilight 6:24 AM EST 5:22 PM EST
Nautical Twilight 5:52 AM EST 5:54 PM EST
Astronomical Twilight 5:21 AM EST 6:25 PM EST
Moon 1:01 PM EST (11/21) 12:18 AM EST (11/21)
Length of Visible Light 10h 58m
Length of Day
10h 02m
First Quarter, 61% of the Moon is Illuminated
Nov 21
First Quarter
Nov 28
Full
Dec 6
Last Quarter
Dec 13
New
Dec 20
First Quarter

Hourly Weather History & Observations

Time (EST) Temp. Windchill Dew Point Humidity Pressure Visibility Wind Dir Wind Speed Gust Speed Precip Events Conditions
12:15 AM 46.4 °F - 44.6 °F 93% 30.10 in 10.0 mi Calm Calm - N/A   Scattered Clouds
12:35 AM 46.4 °F - 44.6 °F 93% 30.10 in 10.0 mi Calm Calm - N/A   Clear
12:55 AM 46.4 °F - 44.6 °F 93% 30.10 in 10.0 mi Calm Calm - N/A   Clear
1:15 AM 44.6 °F - 44.6 °F 100% 30.10 in 10.0 mi Calm Calm - N/A   Clear
1:35 AM 44.6 °F - 44.6 °F 100% 30.10 in 10.0 mi Calm Calm - N/A   Scattered Clouds
1:55 AM 44.6 °F 43.1 °F 44.6 °F 100% 30.10 in 10.0 mi NNW 3.5 mph - N/A   Scattered Clouds
2:15 AM 44.6 °F 43.1 °F 44.6 °F 100% 30.10 in 10.0 mi North 3.5 mph - N/A   Mostly Cloudy
2:35 AM 44.6 °F - 44.6 °F 100% 30.10 in 10.0 mi Calm Calm - N/A   Overcast
2:55 AM 46.4 °F - 46.4 °F 100% 30.10 in 10.0 mi Calm Calm - N/A   Overcast
3:15 AM 46.4 °F 44.3 °F 46.4 °F 100% 30.10 in 10.0 mi North 4.6 mph - N/A   Overcast
3:35 AM 44.6 °F 43.1 °F 44.6 °F 100% 30.10 in 10.0 mi NNW 3.5 mph - N/A   Scattered Clouds
3:55 AM 44.6 °F - 44.6 °F 100% 30.09 in 10.0 mi Calm Calm - N/A   Clear
4:15 AM 44.6 °F 43.1 °F 44.6 °F 100% 30.09 in 7.0 mi North 3.5 mph - N/A   Clear
4:35 AM 42.8 °F 40.1 °F 42.8 °F 100% 30.09 in 7.0 mi North 4.6 mph - N/A   Clear
4:55 AM 42.8 °F - 42.8 °F 100% 30.10 in 7.0 mi Calm Calm - N/A   Clear
5:15 AM 42.8 °F - 42.8 °F 100% 30.11 in 5.0 mi Calm Calm - N/A   Clear
5:35 AM 42.8 °F - 42.8 °F 100% 30.11 in 4.0 mi Calm Calm - N/A   Clear
5:55 AM 41.0 °F - 41.0 °F 100% 30.11 in 4.0 mi Calm Calm - N/A   Clear
6:15 AM 41.0 °F - 41.0 °F 100% 30.12 in 5.0 mi Calm Calm - N/A   Clear
6:35 AM 41.0 °F - 41.0 °F 100% 30.12 in 5.0 mi Calm Calm - N/A   Clear
7:15 AM 41.0 °F - 41.0 °F 100% 30.14 in 5.0 mi Calm Calm - N/A   Clear
7:35 AM 41.0 °F 38.0 °F 41.0 °F 100% 30.14 in 4.0 mi North 4.6 mph - N/A   Clear
7:55 AM 42.8 °F 41.1 °F 42.8 °F 100% 30.14 in 4.0 mi North 3.5 mph - N/A   Clear
8:15 AM 44.6 °F 42.2 °F 44.6 °F 100% 30.15 in 7.0 mi North 4.6 mph - N/A   Clear
8:35 AM 44.6 °F 40.7 °F 44.6 °F 100% 30.15 in 10.0 mi NNE 6.9 mph - N/A   Clear
8:55 AM 46.4 °F 42.4 °F 42.8 °F 87% 30.15 in 10.0 mi NNE 8.1 mph - N/A   Clear
9:15 AM 48.2 °F - 42.8 °F 82% 30.15 in 10.0 mi NNE 6.9 mph - N/A   Clear
9:35 AM 51.8 °F - 39.2 °F 62% 30.15 in 10.0 mi NNE 8.1 mph - N/A   Clear
9:55 AM 51.8 °F - 41.0 °F 67% 30.15 in 10.0 mi NE 12.7 mph 16.1 mph N/A   Clear
10:15 AM 53.6 °F - 44.6 °F 72% 30.16 in 10.0 mi NE 11.5 mph - N/A   Clear
10:35 AM 53.6 °F - 44.6 °F 72% 30.15 in 10.0 mi NNE 9.2 mph - N/A   Clear
10:55 AM 53.6 °F - 44.6 °F 72% 30.15 in 10.0 mi NE 9.2 mph 16.1 mph N/A   Clear
11:15 AM 53.6 °F - 44.6 °F 72% 30.15 in 10.0 mi NNE 10.4 mph - N/A   Scattered Clouds
11:35 AM 55.4 °F - 44.6 °F 67% 30.14 in 10.0 mi NE 12.7 mph - N/A   Scattered Clouds
11:55 AM 55.4 °F - 42.8 °F 63% 30.14 in 10.0 mi NNE 10.4 mph - N/A   Mostly Cloudy
12:15 PM 55.4 °F - 44.6 °F 67% 30.13 in 10.0 mi NE 11.5 mph 16.1 mph N/A   Scattered Clouds
12:35 PM 57.2 °F - 44.6 °F 63% 30.12 in 10.0 mi NNE 9.2 mph - N/A   Clear
12:55 PM 57.2 °F - 42.8 °F 59% 30.12 in 10.0 mi NE 11.5 mph - N/A   Scattered Clouds
1:15 PM 57.2 °F - 42.8 °F 59% 30.12 in 10.0 mi North 8.1 mph - N/A   Scattered Clouds
1:35 PM 59.0 °F - 42.8 °F 55% 30.12 in 10.0 mi NE 8.1 mph - N/A   Scattered Clouds
1:55 PM 59.0 °F - 42.8 °F 55% 30.12 in 10.0 mi North 10.4 mph - N/A   Scattered Clouds
2:15 PM 57.2 °F - 42.8 °F 59% 30.12 in 10.0 mi NE 8.1 mph - N/A   Scattered Clouds
2:55 PM 59.0 °F - 42.8 °F 55% 30.12 in 10.0 mi NE 8.1 mph - N/A   Clear
3:15 PM 57.2 °F - 42.8 °F 59% 30.12 in 10.0 mi North 8.1 mph - N/A   Clear
3:35 PM 57.2 °F - 42.8 °F 59% 30.12 in 10.0 mi NNE 8.1 mph - N/A   Clear
3:55 PM 57.2 °F - 42.8 °F 59% 30.12 in 10.0 mi North 8.1 mph - N/A   Clear
4:15 PM 55.4 °F - 42.8 °F 63% 30.13 in 10.0 mi NE 4.6 mph - N/A   Scattered Clouds
4:35 PM 53.6 °F - 42.8 °F 67% 30.13 in 10.0 mi North 3.5 mph - N/A   Clear
4:55 PM 51.8 °F - 42.8 °F 71% 30.13 in 10.0 mi NNE 3.5 mph - N/A   Clear
5:15 PM 50.0 °F - 42.8 °F 76% 30.14 in 10.0 mi Calm Calm - N/A   Clear
5:35 PM 48.2 °F - 41.0 °F 76% 30.14 in 10.0 mi Calm Calm - N/A   Clear
5:55 PM 46.4 °F - 42.8 °F 87% 30.15 in 10.0 mi Calm Calm - N/A   Clear
6:15 PM 44.6 °F - 41.0 °F 87% 30.15 in 10.0 mi Calm Calm - N/A   Clear
6:35 PM 44.6 °F - 41.0 °F 87% 30.16 in 10.0 mi Calm Calm - N/A   Clear
6:55 PM 42.8 °F - 41.0 °F 93% 30.16 in 10.0 mi Calm Calm - N/A   Clear
7:15 PM 44.6 °F 43.1 °F 42.8 °F 93% 30.16 in 10.0 mi NNW 3.5 mph - N/A   Clear
7:35 PM 44.6 °F - 39.2 °F 81% 30.17 in 10.0 mi Calm Calm - N/A   Clear
7:55 PM 44.6 °F - 41.0 °F 87% 30.17 in 10.0 mi Calm Calm - N/A   Clear
8:15 PM 41.0 °F - 39.2 °F 93% 30.17 in 10.0 mi Calm Calm - N/A   Clear
8:35 PM 41.0 °F - 39.2 °F 93% 30.17 in 10.0 mi Calm Calm - N/A   Clear
8:55 PM 41.0 °F - 39.2 °F 93% 30.17 in 10.0 mi Calm Calm - N/A   Clear
9:15 PM 41.0 °F - 39.2 °F 93% 30.18 in 10.0 mi Calm Calm - N/A   Clear
9:35 PM 42.8 °F 41.1 °F 39.2 °F 87% 30.18 in 10.0 mi North 3.5 mph - N/A   Clear
9:55 PM 42.8 °F 41.1 °F 39.2 °F 87% 30.18 in 10.0 mi North 3.5 mph - N/A   Clear
10:15 PM 41.0 °F 39.0 °F 37.4 °F 87% 30.18 in 10.0 mi NNW 3.5 mph - N/A   Clear
10:35 PM 41.0 °F 37.1 °F 37.4 °F 87% 30.17 in 10.0 mi North 5.8 mph - N/A   Clear
10:55 PM 42.8 °F - 37.4 °F 81% 30.18 in 10.0 mi Calm Calm - N/A   Clear
11:15 PM 39.2 °F - 37.4 °F 93% 30.18 in 10.0 mi Calm Calm - N/A   Clear
11:35 PM 39.2 °F - 37.4 °F 93% 30.18 in 10.0 mi Calm Calm - N/A   Clear
11:55 PM 39.2 °F 35.9 °F 37.4 °F 93% 30.17 in 10.0 mi NNW 4.6 mph - N/A   Clear